Location: Aurora Center
(43.5271°N, 98.5894°W)
Time: 00:33:17
(UTC-05:00)

YUBILEINY - Pass Details

Date: 11 August 2024
Orbit: 1478 x 1508 km, 82.5° (Epoch: 15 September)

Event Time Altitude Azimuth Distance (km) Brightness Sun altitude
Rises 21:38:49 0° 334° (NNW) 4,649 ? -9.9°
Reaches altitude 10° 21:44:43 10° 304° (NW) 3,667 ? -10.8°
Maximum altitude 21:46:53 11° 289° (WNW) 3,578 ? -11.2°
Drops below altitude 10° 21:49:02 10° 275° (W) 3,665 ? -11.5°
Sets 21:54:59 0° 244° (WSW) 4,641 ? -12.4°
